SCP
1 2 2 2 2 1 1 1 1 1 1 0 0 0 0 0 0 1 1 0 0 0 0 0 0 0 0 0 0 0 0 0 0 0 1 1 1 1
1 1 2 2 2 2 1 1 1 1 1 0 0 0 0 1 1 1 1 0 0 0 0 0 0 0 0 0 0 0 0 0 0 0 0 1 1 1
1 1 1 1 1 2 2 2 1 1 1 0 0 0 0 1 1 1 1 1 0 0 0 0 0 0 0 0 0 0 0 0 0 0 0 0 0 1
0 0 0 0 1 1 1 2 2 2 1 1 0 0 0 1 1 2 2 1 1 0 0 0 0 0 0 0 0 0 0 0 0 0 0 0 0 0
1 0 0 0 0 1 1 2 2 2 2 1 1 0 1 1 2 2 2 1 1 1 1 0 0 0 0 0 0 0 0 0 0 0 0 0 0 0
1 1 1 1 1 1 1 1 2 2 2 1 1 1 1 1 2 3 3 2 1 1 1 1 1 1 0 0 0 0 0 0 0 0 0 0 0 0
2 1 1 1 1 1 1 1 1 2 2 1 1 1 1 2 3 3 3 3 2 1 1 1 1 1 1 1 0 0 0 0 0 0 0 0 0 0
2 2 1 1 1 0 0 1 1 1 1 1 1 1 1 2 3 4 4 4 3 2 2 1 1 2 2 2 1 1 0 0 0 0 0 0 0 0
3 3 2 1 1 1 1 1 1 1 1 1 1 1 1 1 2 3 4 4 4 3 3 2 2 2 2 2 2 1 0 0 0 0 0 0 0 0
4 3 2 2 1 1 1 1 1 1 1 1 1 1 1 1 2 2 2 2 3 3 3 3 3 3 3 3 2 2 1 0 0 0 0 0 0 0
4 3 2 2 1 1 1 1 1 1 1 1 1 1 1 1 1 1 1 1 2 2 3 4 4 3 3 3 2 2 1 1 0 0 0 0 0 0
4 4 2 1 1 1 1 1 1 1 1 1 1 1 1 1 1 1 2 2 2 2 3 3 4 3 3 2 2 2 2 1 1 0 0 0 0 0
4 4 2 1 1 1 1 1 1 1 1 1 1 1 2 2 2 3 3 2 2 3 3 3 3 3 2 2 1 1 2 1 1 1 0 0 0 0
4 3 2 1 1 0 0 1 1 1 1 1 1 1 2 2 3 3 3 3 3 3 3 3 3 2 2 1 1 1 1 1 1 1 1 0 0 0
3 2 1 1 1 1 1 1 1 1 1 2 2 2 2 2 3 3 3 3 2 3 3 3 2 2 2 1 1 1 1 1 1 1 1 0 0 0
2 1 1 1 1 1 1 1 1 1 2 2 2 2 2 2 3 3 3 3 2 2 2 2 2 2 2 2 1 1 1 1 1 1 0 0 0 0
1 1 1 1 1 1 1 1 1 1 1 1 2 2 3 3 3 3 3 3 3 3 2 2 2 1 1 1 1 1 1 1 1 0 0 0 0 0
1 2 2 2 2 2 1 1 1 1 1 1 2 2 3 4 4 4 4 3 3 3 2 2 1 1 1 1 1 0 0 0 0 0 0 0 0 0
1 2 3 3 3 3 3 2 2 1 1 1 2 3 4 5 5 4 4 3 3 2 2 2 1 1 1 0 0 0 0 0 0 0 0 0 0 0
2 2 3 4 4 5 4 3 3 2 2 2 2 2 3 3 4 4 4 3 3 2 2 1 1 1 1 1 0 0 0 0 0 0 0 0 0 0
2 2 3 4 4 5 5 4 4 3 2 2 2 1 2 2 2 3 3 3 2 2 1 1 1 1 0 0 0 0 0 0 0 0 0 0 0 0
2 3 3 3 4 4 5 4 4 3 3 2 2 1 1 1 1 2 2 2 1 1 1 1 1 0 0 0 0 0 0 0 0 0 0 0 0 0
2 2 3 3 4 4 4 4 4 3 3 2 1 1 0 0 1 1 1 1 1 1 1 1 1 0 0 0 0 0 0 0 0 0 0 0 0 0
Wind_Speed
1 1 1 2 1 1 1 2 3 2 2 2 2 3 3 3 4 4 4 7 9 9 9 9 9 9 9 9 9 8 8 7 8 8 9 9 9 10
1 1 1 1 1 1 1 1 2 3 2 2 2 2 3 3 5 5 5 7 9 9 9 9 9 9 9 9 9 9 8 8 8 8 8 8 8 8
2 1 2 1 1 1 1 1 1 2 2 2 1 1 2 2 2 3 4 4 5 8 9 9 9 10 10 9 9 9 9 9 9 9 9 9 8 8
2 2 2 1 1 1 1 1 2 2 2 2 2 1 2 3 3 4 3 4 4 7 9 9 10 10 10 10 10 10 9 9 10 10 10 9 9 9
2 2 2 1 2 2 2 2 2 2 2 2 2 2 2 2 1 2 3 2 4 5 8 9 10 10 10 10 10 10 10 10 10 10 10 9 9 9
2 2 2 2 2 2 2 2 2 2 2 2 2 2 2 1 1 1 2 2 3 3 4 5 7 9 11 11 11 10 10 10 10 10 10 9 9 9
3 3 3 3 3 3 2 2 2 2 2 2 2 2 2 1 2 2 3 2 3 3 2 3 3 4 6 9 10 11 11 11 11 11 10 10 10 9
3 4 4 3 4 4 4 3 2 3 3 3 3 4 5 4 3 3 2 2 3 2 2 4 3 4 4 5 8 10 11 11 11 11 11 10 10 11
4 3 4 4 3 3 4 5 5 5 5 5 5 6 5 5 4 4 4 4 5 4 3 4 3 5 5 5 9 10 11 11 11 11 11 11 10 11
4 4 4 4 4 3 3 4 4 5 6 5 6 7 7 5 6 6 6 5 4 3 4 3 3 4 4 4 8 10 11 10 10 11 11 10 10 10
4 4 4 4 6 5 3 4 5 6 7 7 8 8 9 8 6 3 3 3 4 3 3 3 3 2 3 4 4 8 9 10 10 10 10 10 10 9
3 4 5 5 6 5 4 4 6 6 5 5 5 6 6 7 7 6 5 4 3 3 3 3 2 2 2 2 3 3 5 7 9 10 10 10 9 6
3 3 4 7 7 7 5 5 7 6 4 4 4 4 4 4 4 4 5 6 5 5 4 4 3 2 3 2 2 2 3 3 4 5 8 9 10 8
4 4 4 6 6 6 4 5 6 4 2 3 3 4 4 4 4 4 6 6 7 7 5 5 4 4 3 3 3 2 2 3 3 3 3 5 8 10
4 5 6 5 4 4 5 6 4 2 2 3 4 5 4 4 3 3 3 4 4 5 5 5 5 4 4 4 3 2 2 2 3 3 4 4 5 5
3 4 5 4 3 4 4 3 2 2 2 3 4 4 3 3 3 2 3 2 2 3 3 4 5 5 4 4 3 3 3 3 3 3 3 3 3 4
2 2 2 2 3 3 3 2 2 2 2 2 3 4 3 3 3 2 2 2 2 3 3 2 2 3 4 4 3 3 3 3 3 3 3 2 3 4
1 1 2 2 2 2 2 3 2 2 2 2 2 3 3 3 3 2 1 1 2 3 2 2 0 1 1 2 3 4 3 3 2 3 3 3 3 2
1 1 2 2 2 2 2 2 3 3 2 2 2 3 3 3 3 3 2 2 2 2 2 1 1 2 2 2 3 3 3 2 2 2 2 2 3 3
1 2 2 2 2 2 2 2 2 3 2 2 2 3 3 3 3 3 3 2 2 2 1 1 1 2 3 3 2 2 2 3 3 3 2 1 1 1
2 2 2 2 2 2 2 2 2 2 2 2 3 3 3 3 3 3 3 3 2 1 2 2 3 3 1 1 1 1 1 2 4 3 3 2 1 1
1 1 2 2 1 1 2 2 2 2 2 2 3 3 3 3 3 4 3 3 2 2 3 2 1 1 1 2 1 1 1 1 0 1 2 3 3 3
2 1 1 2 1 1 1 1 1 2 2 2 2 3 3 3 3 3 3 3 2 2 1 0 0 0 1 1 1 1 1 1 0 1 1 2 3 4
Wind_Direction
278 268 259 269 257 228 193 165 159 190 247 256 256 240 220 206 207 201 204 207 209 212 212 212 211 212 214 215 216 217 216 216 215 212 215 217 221 226
297 308 298 278 281 265 229 181 155 165 211 241 236 247 221 217 201 203 213 215 214 213 214 214 214 214 214 213 214 215 217 219 214 211 214 217 218 221
320 324 298 292 310 303 262 189 176 159 188 255 247 260 205 223 215 213 217 216 223 220 218 217 216 217 217 215 215 217 219 217 214 213 216 221 222 223
307 317 302 299 300 296 290 245 226 202 182 228 261 249 234 229 216 219 225 223 228 227 222 222 221 218 216 216 215 215 217 217 216 216 218 221 222 223
285 287 287 282 285 283 268 258 245 231 193 198 239 234 241 241 214 246 238 237 236 233 224 227 227 226 223 219 217 216 216 217 218 218 216 216 218 220
280 274 274 259 264 269 270 260 248 231 209 206 236 241 243 248 184 224 262 252 243 238 228 224 229 232 231 224 219 218 219 218 219 218 217 215 216 217
282 275 270 273 278 268 270 252 241 231 222 226 243 249 250 241 223 218 233 249 248 230 223 231 224 232 231 226 223 221 221 220 219 219 218 218 217 216
279 278 274 270 279 279 279 270 237 223 227 228 241 242 245 237 229 222 221 224 258 233 208 244 211 227 230 219 221 220 221 221 220 219 218 218 219 219
268 270 280 286 275 274 280 279 266 252 228 218 232 242 242 233 224 230 225 221 235 219 190 245 226 233 232 228 220 218 220 219 219 221 221 219 219 220
263 257 259 275 275 260 267 278 272 266 249 235 232 242 242 233 219 223 225 235 253 236 183 225 234 235 240 233 220 216 217 219 221 222 224 222 219 220
275 272 261 266 275 263 254 268 278 281 270 256 250 251 250 246 227 209 217 219 251 253 200 199 230 241 243 241 231 218 216 217 220 222 224 223 219 216
286 278 269 275 282 269 245 251 267 275 284 292 282 276 263 251 232 213 208 212 229 247 216 190 216 198 254 244 230 220 219 223 222 222 221 219 212 203
277 283 288 291 284 275 254 245 254 264 278 280 281 281 277 261 243 225 210 205 213 234 214 177 202 202 210 255 254 227 214 213 210 218 219 215 206 195
263 275 284 292 291 286 271 271 272 271 277 285 285 284 278 269 256 241 231 223 222 230 226 189 200 202 203 230 250 240 224 215 204 211 210 204 206 208
267 284 295 296 295 290 282 278 275 275 284 289 281 275 269 266 262 253 251 241 244 244 234 217 210 205 196 214 230 231 237 232 207 208 206 201 198 191
293 298 301 308 307 298 302 299 276 260 258 273 283 283 281 280 270 250 253 258 261 278 258 228 212 198 211 216 213 226 219 212 211 209 203 207 202 196
310 335 352 350 345 332 322 315 314 323 299 292 298 304 304 298 287 272 255 245 242 260 283 286 245 212 205 199 208 222 219 229 219 199 184 205 217 207
74 325 300 299 302 308 311 314 320 314 301 305 306 304 304 300 296 294 269 243 253 256 261 272 318 61 31 276 216 212 222 228 213 188 177 185 220 220
119 268 280 290 293 296 296 293 295 297 302 313 313 313 312 309 306 302 296 270 259 260 260 247 204 177 202 263 285 214 198 206 177 171 189 180 204 220
268 267 276 286 291 296 299 303 309 320 329 328 323 323 319 312 308 305 291 273 265 260 264 248 209 213 212 214 228 268 210 184 178 183 188 182 215 241
277 284 291 295 298 306 311 311 311 317 323 321 319 316 315 316 312 306 299 289 265 246 238 240 241 244 221 118 107 298 282 212 187 184 175 163 182 208
278 283 292 298 300 307 316 324 330 329 326 319 315 314 312 309 309 312 308 295 266 239 236 248 281 73 103 152 191 232 287 339 355 174 176 174 174 192
264 268 287 303 300 299 304 320 325 320 315 309 308 310 313 310 308 310 308 299 288 260 230 235 14 94 157 187 192 212 221 256 63 75 330 312 222 215